Hourly Data Report for October 10, 2015

All times are specified in Local Standard Time (LST). Add 1 hour to adjust for Daylight Saving Time where and when it is observed.

CLYDE RIVER A
NUNAVUT

70°29'09.000" N
68°31'01.000" W
26.50 m
2400804
71090
YCY

Download Data

Hourly Data (October 2015)
Hourly Data Report for October 10, 2015
Temp Definition
°C
Dew Point Temp Definition
°C
Rel Hum Definition
%
Wind Dir Definition
10's deg

Wind Spd Definition
km/h
Visibility Definition
km
Stn Press Definition
kPa
Hmdx Definition


Wind Chill Definition


Weather Definition


TIME
00:00 Legend Double Dagger -3.8 -6.3 83 31 21 16.1 100.46   -10 LegendNANA
01:00 Legend Double Dagger -3.9 -6.1 85 31 18 16.1 100.48   -10 Snow
02:00 Legend Double Dagger -3.8 -5.7 87 32 21 4.8 100.49   -10 Snow
03:00 Legend Double Dagger -4.0 -5.3 91 34 8 2.4 100.52   -7 Snow
04:00 Legend Double Dagger -4.1 -5.2 92 31 18 16.1 100.50   -10 Snow
05:00 Legend Double Dagger -4.1 -5.4 91 32 21 16.1 100.51   -11 Snow
06:00 Legend Double Dagger -4.0 -5.3 91 31 15 16.1 100.51   -9 Snow
07:00 Legend Double Dagger -4.5 -5.9 90 30 21 16.1 100.51   -11 LegendNANA
08:00 Legend Double Dagger -3.6 -5.0 90 30 18 9.7 100.49   -9 Fog
09:00 Legend Double Dagger -3.6 -4.7 92 30 18 16.1 100.46   -9 LegendNANA
10:00 Legend Double Dagger -3.0 -4.3 91 31 21 9.7 100.45   -9 Snow
11:00 Legend Double Dagger -2.1 -2.9 94 34 15 4.8 100.45   -7 Freezing Rain,Snow
12:00 Legend Double Dagger -2.7 -3.7 93 33 15 16.1 100.45   -8 LegendNANA
13:00 Legend Double Dagger -2.0 -3.1 92 32 13 16.1 100.44   -6 LegendNANA
14:00 Legend Double Dagger -2.1 -3.5 90 31 17 16.1 100.46   -7 LegendNANA
15:00 Legend Double Dagger -2.2 -3.2 93 32 17 16.1 100.44   -8 LegendNANA
16:00 Legend Double Dagger -2.1 -3.2 92 32 17 16.1 100.43   -7 LegendNANA
17:00 Legend Double Dagger -2.1 -3.3 91 34 11 16.1 100.42   -6 LegendNANA
18:00 Legend Double Dagger -2.4 -4.0 89 34 9 16.1 100.41   -6 LegendNANA
19:00 Legend Double Dagger -2.0 -3.6 89 35 9 16.1 100.41   -5 LegendNANA
20:00 Legend Double Dagger -1.8 -3.1 91 33 11 16.1 100.39   -6 LegendNANA
21:00 Legend Double Dagger -2.0 -3.3 91 31 17 16.1 100.38   -7 LegendNANA
22:00 Legend Double Dagger -2.0 -3.0 93 31 15 16.1 100.37   -7 Snow
23:00 Legend Double Dagger -1.9 -3.1 91 30 17 16.1 100.35   -7 LegendNANA

Notes on Data Quality.

Legend

  • E = Estimated
  • M = Missing
  • NA = Not Available
  • ‡ = Partner data that is not subject to review by the National Climate Archives
Date modified: